Location: Kuppenheim
(48.8299°N, 8.2568°E)
Time: 08:13:56
(UTC+00:00)

FALCON 9 DEB - Pass Details

Date: 20 June 2021
Orbit: 363 x 379 km, 53.0° (Epoch: 26 July)

Event Time Altitude Azimuth Distance (km) Brightness Sun altitude
Rises 02:07:06 0° 294° (WNW) 2,277 6.7 -9.5°
Reaches altitude 10° 02:09:11 10° 293° (WNW) 1,419 5.6 -9.3°
Maximum altitude 02:12:21 75° 208° (SSW) 403 2.8 -9.0°
Drops below altitude 10° 02:15:29 10° 122° (ESE) 1,405 5.8 -8.7°
Sets 02:17:31 0° 121° (ESE) 2,253 6.9 -8.5°
